GW0634 Weather Reports


time (UTC)temp
F
wind
direction
speed
knots
gust
knots
rain 1hr
in
rain 24hr
in
rain mn
in
humidity
%
barometer
mb
20260507145038 49 261 3.5 4.3 0.00 0.01 0.01 76 891.9
20260507144534 48 259 6.1 7.0 0.00 0.01 0.01 75 891.7
20260507144032 48 247 4.3 6.1 0.00 0.01 0.01 76 892.0
20260507143529 47 230 6.1 7.8 0.00 0.01 0.01 73 891.9
20260507143027 47 221 6.1 7.8 0.00 0.01 0.01 77 892.0
20260507142522 46 241 7.0 8.7 0.00 0.01 0.01 77 891.8
20260507142019 45 252 5.2 6.1 0.00 0.01 0.01 78 891.8
20260507141515 45 253 3.5 4.3 0.00 0.01 0.01 79 891.8
20260507141012 45 255 8.7 12.2 0.00 0.01 0.01 78 891.9
20260507140508 45 251 4.3 5.2 0.00 0.01 0.01 80 891.8
20260507140006 44 238 4.3 7.0 0.00 0.01 0.01 79 891.7
20260507135503 44 247 0.9 1.7 0.00 0.01 0.01 80 891.8
20260507135000 43 235 3.5 6.1 0.00 0.01 0.01 80 891.9
20260507134456 42 257 3.5 6.1 0.00 0.01 0.01 81 891.8
20260507133952 41 249 4.3 5.2 0.00 0.01 0.01 82 892.0
20260507133448 41 254 6.1 8.7 0.05 0.01 0.01 81 892.1
20260507132947 41 246 6.1 7.8 0.05 0.01 0.01 81 891.9
20260507132442 40 255 2.6 4.3 0.00 0.00 0.00 84 891.9
20260507131939 40 248 6.1 7.0 0.00 0.00 0.00 83 891.9
20260507131436 39 253 3.5 5.2 0.00 0.00 0.00 85 892.0
20260507130933 39 261 5.2 6.1 0.00 0.00 0.00 85 891.8
20260507130431 39 242 3.5 4.3 0.00 0.00 0.00 85 891.9
20260507125929 39 271 5.2 7.0 0.00 0.00 0.00 84 891.9
20260507125427 38 262 5.2 6.1 0.00 0.00 0.00 85 891.8
20260507124924 37 264 4.3 6.1 0.00 0.00 0.00 86 891.9
20260507124420 37 263 4.3 6.1 0.00 0.00 0.00 87 891.7
20260507123919 36 269 5.2 6.1 0.00 0.00 0.00 88 891.7
20260507123415 36 277 5.2 7.0 0.00 0.00 0.00 89 891.8
20260507122912 36 269 4.3 6.1 0.00 0.00 0.00 88 892.0
20260507122407 36 275 5.2 7.0 0.00 0.00 0.00 88 891.7
20260507121904 36 266 4.3 6.1 0.00 0.00 0.00 89 891.6
20260507121359 35 293 5.2 6.1 0.00 0.00 0.00 91 891.8
20260507120856 34 286 3.5 4.3 0.00 0.00 0.00 99 891.8
20260507120352 33 262 6.1 7.8 0.00 0.00 0.00 99 891.7
20260507115848 33 262 3.5 5.2 0.00 0.00 0.00 99 891.9
20260507115344 32 256 4.3 4.3 0.00 0.00 0.00 99 891.6
20260507114840 31 250 3.5 4.3 0.00 0.00 0.00 99 891.8
20260507114337 31 249 2.6 2.6 0.00 0.00 0.00 99 891.9
20260507113835 31 252 4.3 6.1 0.00 0.00 0.00 99 891.8
20260507113332 31 251 3.5 5.2 0.00 0.00 0.00 99 891.6
20260507112829 31 248 2.6 2.6 0.00 0.00 0.00 99 891.7
20260507112326 31 248 2.6 2.6 0.00 0.00 0.00 99 891.8
20260507111824 31 250 1.7 2.6 0.00 0.00 0.00 99 891.8
20260507111320 32 251 3.5 4.3 0.00 0.00 0.00 99 891.8
20260507110816 31 268 5.2 7.0 0.00 0.00 0.00 99 891.8
20260507110313 31 252 2.6 2.6 0.00 0.00 0.00 99 891.9
20260507105810 31 252 2.6 4.3 0.00 0.00 0.00 99 891.8
20260507105307 31 255 3.5 4.3 0.00 0.00 0.00 99 891.7
20260507104804 30 253 4.3 6.1 0.00 0.00 0.00 99 891.8
20260507104300 30 248 2.6 2.6 0.00 0.00 0.00 99 891.9
20260507103756 30 247 3.5 4.3 0.00 0.00 0.00 99 892.0
20260507103252 30 248 2.6 2.6 0.00 0.00 0.00 99 891.7
20260507102749 30 247 4.3 6.1 0.00 0.00 0.00 99 892.0
20260507102245 30 250 4.3 5.2 0.00 0.00 0.00 99 891.9
20260507101742 30 248 3.5 4.3 0.00 0.00 0.00 99 891.8
20260507101237 30 254 4.3 5.2 0.00 0.00 0.00 99 891.9
20260507100734 30 267 3.5 5.2 0.00 0.00 0.00 99 892.0
20260507100233 29 256 2.6 4.3 0.00 0.00 0.00 99 891.9
20260507095730 29 259 4.3 5.2 0.00 0.00 0.00 99 891.8
20260507095226 29 250 2.6 2.6 0.00 0.00 0.00 99 892.1
20260507094723 29 252 2.6 2.6 0.00 0.00 0.00 99 892.0
20260507094220 29 252 3.5 4.3 0.00 0.00 0.00 99 891.9
20260507093717 30 249 3.5 5.2 0.00 0.00 0.00 99 892.1
20260507093216 30 249 2.6 4.3 0.00 0.00 0.00 99 892.0
20260507092713 30 249 2.6 4.3 0.00 0.00 0.00 99 892.0
20260507092209 29 249 2.6 2.6 0.00 0.00 0.00 99 892.0
20260507091705 29 250 3.5 4.3 0.00 0.00 0.00 99 892.2
20260507091202 30 253 2.6 2.6 0.00 0.00 0.00 99 892.0
20260507090657 30 245 4.3 5.2 0.00 0.00 0.00 99 891.9
20260507090155 30 264 3.5 4.3 0.00 0.00 0.00 99 892.2
20260507085652 30 252 3.5 5.2 0.00 0.00 0.00 99 892.1
20260507085148 30 255 2.6 2.6 0.00 0.00 0.00 99 892.4
20260507084645 30 262 4.3 6.1 0.00 0.00 0.00 99 892.1
20260507084142 30 250 3.5 4.3 0.00 0.00 0.00 99 892.2
20260507083639 30 254 4.3 5.2 0.00 0.00 0.00 99 892.2
20260507083136 30 254 3.5 5.2 0.00 0.00 0.00 99 892.3
20260507082631 30 255 3.5 4.3 0.00 0.00 0.00 99 892.4
20260507082128 30 253 3.5 4.3 0.00 0.00 0.00 99 892.3
20260507081625 30 251 4.3 5.2 0.00 0.00 0.00 99 892.6
20260507081121 30 248 1.7 1.7 0.00 0.00 0.00 99 892.5
20260507080618 30 249 3.5 4.3 0.00 0.00 0.00 99 892.6
20260507080114 30 247 0.9 0.9 0.00 0.00 0.00 99 892.7
20260507075609 30 247 1.7 1.7 0.00 0.00 0.00 99 892.9
20260507075105 30 247 2.6 2.6 0.00 0.00 0.00 99 892.6
20260507074603 30 264 0.9 0.9 0.00 0.00 0.00 99 893.0
20260507074101 30 251 1.7 2.6 0.00 0.00 0.00 99 893.1
20260507073556 30 249 2.6 2.6 0.00 0.00 0.00 99 893.1
20260507073053 31 248 1.7 2.6 0.00 0.00 0.00 99 893.1
20260507072550 31 248 1.7 1.7 0.00 0.00 0.00 99 892.9
20260507072047 31 249 0.9 0.9 0.00 0.00 0.00 99 892.9
20260507071545 31 269 1.7 1.7 0.00 0.00 0.00 99 892.9
20260507071041 31 269 0.0 0.9 0.00 0.00 0.00 99 893.2
20260507070538 31 269 0.0 0.0 0.00 0.00 0.00 99 893.2
20260507070035 30 269 0.0 0.0 0.00 0.00 0.00 99 893.3
20260507065532 30 269 0.0 0.0 0.00 0.00 0.00 99 893.2
20260507065029 31 272 0.9 1.7 0.00 0.00 0.00 99 893.2
20260507064527 31 272 0.0 0.0 0.00 0.00 0.00 99 893.4
20260507064025 31 272 0.0 0.0 0.00 0.00 0.00 99 893.4
20260507063522 31 275 0.0 0.0 0.00 0.00 0.00 99 893.3
20260507063020 32 275 0.0 0.0 0.00 0.00 0.00 99 893.4
20260507062516 32 275 0.0 0.0 0.00 0.00 0.00 99 893.3
20260507062014 31 275 0.0 0.0 0.00 0.00 0.00 99 893.5
20260507061511 32 275 0.0 0.0 0.00 0.00 0.00 99 893.4
20260507061009 32 275 0.0 0.0 0.00 0.00 0.00 99 893.3
20260507060506 32 275 0.0 0.0 0.00 0.00 0.00 99 893.2
20260507060003 32 275 0.0 0.0 0.00 0.23 0.23 99 893.2
20260507055458 32 275 0.0 0.0 0.00 0.23 0.23 99 893.3
20260507054955 32 276 0.9 0.9 0.00 0.23 0.23 99 893.3
20260507054450 32 286 0.0 0.0 0.00 0.23 0.23 99 893.4
20260507053948 32 286 0.0 0.0 0.00 0.23 0.23 99 893.1
20260507053446 32 287 0.0 0.0 0.00 0.23 0.23 99 893.2
20260507052944 32 287 0.0 0.0 0.00 0.23 0.23 99 893.2
20260507052441 32 287 0.0 0.0 0.00 0.23 0.23 99 893.1
20260507051938 33 286 0.0 0.0 0.00 0.23 0.23 99 893.1
20260507051436 32 287 0.0 0.0 0.00 0.23 0.23 99 893.2
20260507050932 32 287 0.0 0.0 0.00 0.23 0.23 99 893.0
20260507050429 32 287 0.0 0.0 0.00 0.23 0.23 99 892.7
20260507045926 32 287 0.0 0.0 0.00 0.23 0.23 99 893.0
20260507045422 33 287 0.0 0.0 0.00 0.23 0.23 99 893.1
20260507044920 33 287 0.0 0.0 0.00 0.23 0.23 99 893.2
20260507044416 33 287 0.0 0.0 0.00 0.23 0.23 99 893.3
20260507043912 33 287 0.0 0.0 0.00 0.23 0.23 99 893.3
20260507043409 33 286 0.0 0.0 0.00 0.23 0.23 99 893.1
20260507042905 33 287 0.0 0.0 0.00 0.23 0.23 99 893.3
20260507042402 33 340 0.0 0.0 0.00 0.23 0.23 99 893.4
20260507041857 33 341 0.0 0.0 0.00 0.23 0.23 99 893.2
20260507041355 33 341 0.0 0.0 0.00 0.23 0.23 99 893.0
20260507040852 33 341 0.0 0.0 0.00 0.23 0.23 99 893.1
20260507040348 33 341 0.0 0.0 0.00 0.23 0.23 99 893.2
20260507035844 33 341 0.0 0.0 0.00 0.23 0.23 99 893.1
20260507035340 33 341 0.0 0.0 0.00 0.23 0.23 99 893.3
20260507034837 33 341 0.0 0.0 0.00 0.23 0.23 99 893.1
20260507034334 33 341 0.0 0.0 0.00 0.23 0.23 99 893.2
20260507033832 33 341 0.0 0.0 0.00 0.23 0.23 99 893.4
20260507033330 33 341 0.0 0.0 0.00 0.23 0.23 99 893.3
20260507032826 33 341 0.0 0.0 0.00 0.23 0.23 99 893.1
20260507032322 33 341 0.0 0.0 0.00 0.23 0.23 99 893.4
20260507031819 33 341 0.0 0.0 0.00 0.23 0.23 99 893.3
20260507031316 33 341 0.0 0.0 0.00 0.23 0.23 99 893.3
20260507030812 33 341 0.0 0.0 0.00 0.23 0.23 99 893.0
20260507030311 34 341 0.0 0.0 0.00 0.23 0.23 99 892.9
20260507025807 34 341 0.0 0.0 0.00 0.23 0.23 99 893.0
20260507025306 34 341 0.0 0.0 0.00 0.23 0.23 99 893.2
20260507024802 34 341 0.0 0.0 0.00 0.23 0.23 99 893.0
20260507024259 34 341 0.0 0.0 0.07 0.23 0.23 99 893.1
20260507023755 34 341 0.0 0.0 0.07 0.23 0.23 99 892.7
20260507023252 34 341 0.0 0.0 0.00 0.22 0.22 99 892.6
20260507022749 34 341 0.0 0.0 0.00 0.22 0.22 99 892.9
20260507022245 34 341 0.0 0.0 0.00 0.22 0.22 99 892.9
20260507021741 34 341 0.0 0.0 0.05 0.22 0.22 99 892.6
20260507021237 34 341 0.0 0.0 0.05 0.22 0.22 99 892.7
20260507020735 34 341 0.0 0.0 0.00 0.21 0.21 99 892.4
20260507020232 33 341 0.0 0.0 0.07 0.21 0.21 99 892.5
20260507015729 33 337 0.0 0.9 0.07 0.21 0.21 99 892.2
20260507015226 33 312 0.0 0.0 0.07 0.20 0.20 99 892.4
20260507014723 33 311 0.0 0.0 0.07 0.20 0.20 99 892.7
20260507014219 33 318 0.0 0.0 0.05 0.19 0.19 99 892.6
20260507013716 33 327 0.0 0.0 0.05 0.19 0.19 99 892.5
20260507013214 33 327 0.0 0.0 0.05 0.19 0.19 99 892.4
20260507012711 33 327 1.7 1.7 0.00 0.18 0.18 99 892.2
20260507012206 33 324 0.0 0.0 0.00 0.18 0.18 99 891.9
20260507011704 32 324 0.0 0.0 0.00 0.18 0.18 99 892.1
20260507011200 33 324 0.0 0.9 0.00 0.18 0.18 99 892.0
20260507010700 33 324 0.0 0.0 0.07 0.18 0.18 99 891.6
20260507010156 33 335 0.9 1.7 0.19 0.18 0.18 99 891.4
20260507005654 33 335 0.0 0.0 0.12 0.17 0.17 99 891.5
20260507005155 33 335 0.0 0.0 0.05 0.15 0.15 99 891.5
20260507004652 33 347 2.6 4.3 0.05 0.15 0.15 99 891.5
20260507004149 34 351 0.0 0.9 0.00 0.14 0.14 99 891.6
20260507003646 34 352 0.9 1.7 0.00 0.14 0.14 99 891.4
20260507003145 34 334 5.2 7.0 0.00 0.14 0.14 99 891.6
20260507002642 35 331 2.6 5.2 0.00 0.14 0.14 99 891.6
20260507002138 34 350 7.8 8.7 0.00 0.14 0.14 99 891.3
20260507001635 35 351 3.5 4.3 0.00 0.14 0.14 99 891.3
20260507001133 35 352 6.1 7.8 0.00 0.14 0.14 99 891.5
20260507000629 35 335 0.9 1.7 0.00 0.14 0.14 99 891.6
20260507000124 35 352 4.3 6.1 0.00 0.14 0.14 99 891.4
20260506235622 35 324 7.8 11.3 0.07 0.14 0.14 99 891.4
20260506235122 35 349 5.2 6.1 0.07 0.14 0.14 99 891.5
20260506234620 35 342 7.0 11.3 0.00 0.13 0.13 99 891.5
20260506234116 35 352 4.3 6.1 0.05 0.13 0.13 99 891.3
20260506233613 35 308 0.0 1.7 0.12 0.13 0.13 99 891.3
20260506233110 35 1 2.6 2.6 0.12 0.12 0.12 99 891.0
20260506232606 35 326 7.0 8.7 0.05 0.11 0.11 99 891.1
20260506232102 38 339 7.8 8.7 0.00 0.10 0.10 99 891.0
20260506231559 38 321 0.0 0.0 0.14 0.10 0.10 99 890.8
20260506231058 38 322 0.0 0.0 0.19 0.10 0.10 99 890.5
20260506230554 38 323 0.0 0.0 0.24 0.09 0.09 99 890.6
20260506230051 38 325 0.0 0.9 0.19 0.07 0.07 99 890.5
20260506225548 38 327 0.0 0.0 0.12 0.05 0.05 99 890.0
20260506225044 38 328 0.0 0.0 0.12 0.04 0.04 99 889.8
20260506224541 38 76 0.0 0.0 0.07 0.03 0.03 99 889.9
20260506224038 38 76 0.0 0.0 0.00 0.02 0.02 99 889.5
20260506223533 38 75 0.0 0.9 0.00 0.02 0.02 99 889.4
20260506223030 38 75 2.6 4.3 0.00 0.02 0.02 99 889.5
20260506222527 39 72 0.0 0.9 0.00 0.02 0.02 99 889.5
20260506222023 39 72 1.7 2.6 0.00 0.02 0.02 99 889.3
20260506221521 39 74 0.9 0.9 0.00 0.02 0.02 99 889.4
20260506221019 38 52 1.7 2.6 0.00 0.02 0.02 99 889.6
20260506220514 39 77 0.9 1.7 0.00 0.02 0.02 99 889.4
20260506220010 39 48 0.9 0.9 0.00 0.02 0.02 99 889.3
20260506215507 39 75 0.9 1.7 0.00 0.02 0.02 99 889.3
20260506215003 39 69 2.6 2.6 0.00 0.02 0.02 99 889.4
20260506214500 39 60 2.6 4.3 0.00 0.02 0.02 99 889.2
20260506213957 39 58 1.7 1.7 0.00 0.02 0.02 99 889.2
20260506213455 39 53 1.7 1.7 0.00 0.02 0.02 99 889.3
20260506212952 39 72 0.0 0.0 0.00 0.02 0.02 99 889.2
20260506212448 39 73 2.6 4.3 0.00 0.02 0.02 99 889.2
20260506211943 39 73 0.0 0.9 0.00 0.02 0.02 99 889.3
20260506211439 39 70 0.0 0.9 0.00 0.02 0.02 99 889.3
20260506210937 39 67 2.6 2.6 0.00 0.02 0.02 99 889.4
20260506210433 39 81 0.0 0.0 0.00 0.02 0.02 99 889.4
20260506205930 39 100 1.7 2.6 0.00 0.02 0.02 99 889.5
20260506205426 39 73 0.9 0.9 0.00 0.02 0.02 99 889.4
20260506204923 39 69 0.9 1.7 0.00 0.02 0.02 99 889.3
20260506204421 39 66 2.6 4.3 0.00 0.02 0.02 99 889.4
20260506203918 39 72 0.0 0.0 0.00 0.02 0.02 99 889.4
20260506203415 39 73 0.9 1.7 0.00 0.02 0.02 99 889.4
20260506202912 39 95 3.5 4.3 0.00 0.02 0.02 99 889.6
20260506202409 39 71 1.7 2.6 0.00 0.02 0.02 99 889.7
20260506201905 39 78 1.7 2.6 0.00 0.02 0.02 99 889.6
20260506201403 39 105 2.6 4.3 0.00 0.02 0.02 99 889.6
20260506200859 39 79 2.6 2.6 0.00 0.02 0.02 99 889.4
20260506200355 39 71 2.6 2.6 0.00 0.02 0.02 99 889.4
20260506195852 39 91 1.7 2.6 0.00 0.02 0.02 99 889.6
20260506195349 39 135 4.3 6.1 0.00 0.02 0.02 99 889.3
20260506194846 39 90 2.6 6.1 0.00 0.02 0.02 99 889.6
20260506194343 39 89 3.5 5.2 0.00 0.02 0.02 99 889.6
20260506193840 39 88 1.7 2.6 0.00 0.02 0.02 99 889.6
20260506193337 38 85 2.6 5.2 0.00 0.02 0.02 99 889.5
20260506192833 39 77 2.6 4.3 0.00 0.02 0.02 99 889.4
20260506192330 39 75 0.0 0.9 0.00 0.02 0.02 99 889.3
20260506191827 39 88 0.0 0.9 0.00 0.02 0.02 99 889.3
20260506191323 39 70 0.9 1.7 0.00 0.02 0.02 99 889.6
20260506190820 39 77 2.6 4.3 0.00 0.02 0.02 99 889.5
20260506190317 39 157 2.6 2.6 0.00 0.02 0.02 99 889.6
20260506185814 39 96 2.6 2.6 0.00 0.02 0.02 99 889.3
20260506185311 39 103 2.6 2.6 0.00 0.02 0.02 99 889.5
20260506184808 38 120 0.0 0.0 0.00 0.02 0.02 99 889.4
20260506184305 39 158 3.5 5.2 0.00 0.02 0.02 99 889.5
20260506183802 39 103 1.7 2.6 0.00 0.02 0.02 99 889.3
20260506183257 39 111 4.3 5.2 0.00 0.02 0.02 99 889.3
20260506182754 38 80 2.6 4.3 0.00 0.02 0.02 99 889.4
20260506182251 39 103 4.3 6.1 0.00 0.02 0.02 99 889.5
20260506181749 39 99 4.3 6.1 0.00 0.02 0.02 99 889.6
20260506181247 39 119 2.6 2.6 0.00 0.02 0.02 99 889.4
20260506180744 39 102 3.5 4.3 0.00 0.02 0.02 99 889.2
20260506180239 39 91 2.6 4.3 0.00 0.02 0.02 99 889.4
20260506175736 39 133 1.7 2.6 0.00 0.02 0.02 99 889.3
20260506175233 39 106 3.5 4.3 0.00 0.02 0.02 99 889.3
20260506174731 39 105 4.3 6.1 0.00 0.02 0.02 99 889.4
20260506174227 39 92 3.5 5.2 0.00 0.02 0.02 99 889.1
20260506173725 39 92 4.3 5.2 0.00 0.02 0.02 99 889.3
20260506173222 38 88 2.6 2.6 0.00 0.02 0.02 99 889.4
20260506172719 39 96 3.5 5.2 0.00 0.02 0.02 99 889.4
20260506172215 39 107 3.5 4.3 0.00 0.02 0.02 99 889.2
20260506171713 39 122 4.3 6.1 0.00 0.02 0.02 99 889.2
20260506171210 38 102 2.6 4.3 0.00 0.02 0.02 99 889.1
20260506170708 40 87 4.3 6.1 0.00 0.02 0.02 99 889.2
20260506170204 39 116 4.3 5.2 0.00 0.02 0.02 99 888.9
20260506165702 39 95 5.2 6.1 0.00 0.02 0.02 99 888.9
20260506165159 39 133 2.6 4.3 0.00 0.02 0.02 99 888.9
20260506164656 39 99 4.3 6.1 0.00 0.02 0.02 99 888.7
20260506164153 39 104 3.5 5.2 0.00 0.02 0.02 99 888.8
20260506163649 38 111 4.3 6.1 0.00 0.02 0.02 99 888.9
20260506163145 38 108 4.3 7.8 0.00 0.02 0.02 99 888.7
20260506162641 38 107 4.3 5.2 0.00 0.02 0.02 99 888.8
20260506162139 37 86 4.3 6.1 0.00 0.02 0.02 99 888.8
20260506161636 37 84 4.3 7.0 0.00 0.02 0.02 99 888.8
20260506161133 37 85 7.0 8.7 0.00 0.02 0.02 99 888.8
20260506160630 37 108 6.1 7.0 0.00 0.02 0.02 99 888.8
20260506160127 37 89 4.3 6.1 0.00 0.02 0.02 99 888.8
20260506155626 37 96 4.3 6.1 0.00 0.02 0.02 99 888.8
20260506155122 36 109 5.2 6.1 0.00 0.02 0.02 99 888.8
20260506153219 36 90 4.3 6.1 0.00 0.02 0.02 99 888.6
20260506152715 36 77 4.3 6.1 0.00 0.02 0.02 99 888.6
20260506152213 36 88 2.6 2.6 0.00 0.02 0.02 99 888.6
20260506151712 36 106 3.5 4.3 0.00 0.02 0.02 99 889.0
20260506151208 36 105 2.6 5.2 0.00 0.02 0.02 99 888.6
20260506150704 36 74 1.7 2.6 0.00 0.02 0.02 99 888.9
20260506150201 36 82 1.7 2.6 0.00 0.02 0.02 99 888.8
20260506145659 36 77 1.7 2.6 0.00 0.02 0.02 99 888.8